Location: Romentino
(45.4667°N, 8.7000°E)
Time: 12:18:31
(UTC+00:00)

Daily predictions for brighter satellites

Satellite Brightness Start Highest point End
(mag) Time Altitude Azimuth Time Altitude Azimuth Time Altitude Azimuth
Cosmos 1898 Rocket 3.8 16:47:51 10° S 16:52:52 47° ESE 16:57:52 10° NNE
Cosmos 923 Rocket 4.1 16:48:45 10° NNW 16:54:08 87° ENE 16:59:25 10° SSE
TELKOM 3 4.2 16:54:26 10° NW 16:56:16 23° N 16:58:11 10° ENE
CZ-4C R/B 3.3 16:53:20 10° N 16:56:29 61° WNW 16:59:41 10° SSW
Cosmos 1680 Rocket 3.5 16:53:10 10° NNW 16:58:25 73° ENE 17:03:37 10° SSE
Nadezhda 4 Rocket 4.0 16:52:58 10° S 16:59:09 74° E 17:05:19 10° NNE
Meteor 2-10 Rocket 4.1 16:55:53 10° NNW 17:01:12 64° W 17:06:16 10° S
NOAA 12 4.5 16:56:38 10° S 17:01:51 72° WSW 17:07:07 10° NNW
CZ-4B R/B 2.1 17:02:03 10° NNE 17:05:03 32° E 17:07:57 10° SSE
CZ-2D R/B 3.9 17:01:42 10° SE 17:05:11 34° ENE 17:08:41 10° N
Landsat 5 4.1 17:02:26 10° N 17:06:13 54° WNW 17:09:56 10° SSW
MOS 1 Rocket 3.9 17:02:57 10° NNE 17:06:46 30° E 17:10:37 10° SSE
NOAA 11 4.4 17:03:42 10° SSE 17:09:12 82° WSW 17:14:44 10° NNW
Cosmos-2242 4.0 17:06:19 10° NNE 17:09:54 25° ENE 17:13:29 10° SE
NOSS 3-1 (C) 4.1 17:04:58 10° NW 17:12:30 84° NE 17:21:15 10° SE
COSMO-SKYMED 1 2.9 17:10:02 10° NNE 17:14:12 45° E 17:18:22 10° S
BREEZE-M DEB (TANK) 2.6 17:13:22 10° WNW 17:15:29 33° N 17:17:14 14° ENE
Cosmos 1937 Rocket 3.7 17:10:20 10° S 17:15:30 55° ESE 17:20:42 10° NNE
Cosmos 1758 Rocket 4.3 17:12:26 10° SSE 17:16:26 33° E 17:20:28 10° NNE
Aureole 3 3.0 17:14:40 10° NNW 17:17:42 67° W 17:20:39 10° S
USA 290 2.9 17:19:02 10° N 17:21:56 31° ENE 17:24:48 10° SE
NOSS 2-1 (C) 3.4 17:20:22 10° SW 17:23:39 56° NW 17:27:05 10° NNE
Cosmos 1833 Rocket 2.8 17:20:22 10° NNW 17:25:53 52° ENE 17:31:21 10° SE
H-2A R/B 2.5 17:23:01 10° SE 17:27:38 37° ENE 17:32:24 10° N
Meteor 1-21 Rocket 4.4 17:23:30 10° SSW 17:29:01 75° WNW 17:34:39 10° N
NOSS 2-1 (D) 3.7 17:26:23 10° SW 17:29:36 48° NW 17:33:00 10° NNE
Cosmos 1939 Rocket 3.0 17:25:47 10° S 17:29:52 80° W 17:33:55 10° NNW
Helios 1A Rocket 3.9 17:26:46 10° SE 17:30:15 27° ENE 17:33:45 10° N
H-2A R/B 3.0 17:27:08 10° N 17:31:22 49° WNW 17:35:29 10° SW
Cosmos 2344 4.4 17:23:10 10° NW 17:32:24 71° NE 17:45:18 10° SE
Cosmos 1602 Rocket 3.5 17:28:48 10° S 17:33:10 90° E 17:37:35 10° N
Cosmos 44 4.3 17:28:59 10° WSW 17:33:39 46° NW 17:38:39 10° NNE
USA 229 DEB 3.9 17:26:36 10° NW 17:33:58 84° NE 17:41:41 10° SE
USA 229 3.9 17:26:43 10° NW 17:34:04 84° NE 17:41:49 10° SE
Cosmos 2026 Rocket 4.0 17:28:18 10° S 17:34:21 65° E 17:40:33 10° NNE
SeaSat 1 4.5 17:30:47 10° N 17:34:38 23° NW 17:38:29 10° W
CZ-3B R/B 2.1 17:32:20 10° NW 17:35:01 67° NE 17:43:04 10° ESE
Feng Yun 1-1 Rocket 4.2 17:29:39 10° SSE 17:35:08 86° ENE 17:40:49 10° NNW
CSL-04 DEB 4.5 17:31:57 10° NNE 17:36:05 81° WNW 17:40:04 10° SSW
SJ 16-02 3.4 17:32:51 10° WSW 17:36:37 27° WNW 17:40:22 10° N
SKYMED 3 4.5 17:33:56 10° NNE 17:38:18 81° E 17:42:38 10° S
YAOGAN 1 2.9 17:35:06 10° SE 17:39:11 43° ENE 17:43:18 10° N
Cosmos 1844 Rocket 4.3 17:37:00 10° WSW 17:42:00 31° NW 17:47:01 10° N
Cosmos 1689 Rocket 2.8 17:41:34 28° ENE 17:42:02 30° E 17:44:35 10° SSE
Cosmos 1553 Rocket 4.2 17:36:31 10° N 17:42:44 50° ENE 17:48:48 10° SSE
Aureole 3 Rocket 2.5 17:40:09 10° N 17:43:26 75° E 17:47:33 10° SSE
COSMOS 2406 3.2 17:39:28 10° NNW 17:45:18 82° ENE 17:51:03 10° SSE
Cosmos 2082 Rocket 2.6 17:40:13 10° NNW 17:45:40 43° NE 17:51:03 10° SE
HJ-1C 4.3 17:47:04 27° ENE 17:47:04 27° ENE 17:49:47 10° N
Cosmos 1703 4.2 17:43:29 10° SSW 17:47:15 50° WNW 17:51:02 10° N
Cosmos 1825 Rocket 3.7 17:43:58 10° S 17:48:13 52° E 17:52:31 10° NNE
IRS-1C Rocket 4.0 17:43:25 10° SSE 17:48:40 84° ENE 17:53:57 10° NNW
Meteor 1-27 4.3 17:44:06 10° N 17:49:33 51° ENE 17:54:56 10° SSE
NOSS 3-1 (A) 4.1 17:42:05 10° NW 17:49:39 89° NE 17:58:26 10° SE
X-37B 1.0 17:46:53 10° W 17:50:01 58° SSW 17:51:36 26° SE
Cosmos 1812 Rocket 4.1 17:48:22 10° NNW 17:52:41 62° W 17:56:58 10° S
ISS -2.4 17:49:55 10° WNW 17:52:53 27° N 17:53:50 24° NNE
Okean O Rocket 3.9 17:50:58 10° SSW 17:54:46 28° W 17:58:34 10° NW
ATLAS 5 CENTAUR R/B 4.3 17:58:10 10° N 17:58:21 10° N 17:58:31 10° N
CZ-4 R/B 1.2 17:54:49 10° SSE 17:58:51 82° ENE 18:02:50 10° N
Iridium 4 Rocket 3.5 17:55:36 10° N 18:00:59 83° W 18:05:51 10° S
SKYMED 2 4.2 17:58:02 10° N 18:02:18 57° WNW 18:06:33 10° SSW
ERS-2 2.0 17:58:40 10° NNE 18:02:20 84° ESE 18:05:58 10° SSW
CSL-04 Rocket 3.8 17:57:58 10° SE 18:03:12 51° ENE 18:08:32 10° N
Okean-O 2.5 18:01:54 10° SSE 18:06:19 86° ENE 18:10:46 10° NNW
CZ-4C R/B 4.4 18:05:03 10° NNW 18:09:00 17° N 18:11:46 14° NE
S3M 4.0 18:03:15 10° N 18:09:14 54° ENE 18:15:13 10° SSE
USA 234 4.3 18:05:52 20° NE 18:09:24 32° N 18:15:03 10° WNW
Cosmos 1340 4.5 18:07:30 10° SW 18:10:54 32° WNW 18:14:19 10° N
Cosmos 1346 Rocket 2.7 18:07:20 10° S 18:11:17 85° WNW 18:15:12 10° N
Cosmos 1655 Rocket 4.1 18:05:36 10° SSE 18:11:31 49° E 18:17:29 10° NNE
Cosmos 2278 Rocket 2.2 18:06:11 10° SSW 18:11:52 83° WNW 18:17:11 12° NNE
Cosmos 1953 Rocket 3.4 18:10:24 10° S 18:14:41 65° E 18:17:58 17° NNE
CZ-2C R/B 4.0 18:09:34 10° S 18:14:55 54° W 18:20:32 10° NNW
SWARM C 4.3 18:14:01 10° S 18:17:20 84° E 18:18:11 47° N
SWARM A 4.1 18:14:07 10° S 18:17:26 90° E 18:18:52 32° N
Cosmos 2292 Rocket 3.4 18:14:38 10° S 18:19:31 62° E 18:20:41 42° NE
Cosmos 1892 4.4 18:16:08 10° SSE 18:17:23 19° SSE 18:17:23 19° SSE
SAR-Lupe-4 3.7 18:17:50 19° N 18:20:16 72° WNW 18:23:49 10° SSW
Cosmos 44 Rocket 3.4 18:17:18 10° SSW 18:22:07 58° ESE 18:23:19 45° ENE
ARGOS 3.0 18:23:00 10° SSE 18:28:22 87° ENE 18:33:47 10° NNW
DMSP B5D1-3 4.4 18:23:56 10° NNE 18:29:04 88° ESE 18:34:10 10° SSW
Meteor 2-2 Rocket 4.4 18:24:55 10° N 18:30:47 55° ENE 18:34:20 24° SE
Cosmos 1869 3.7 18:27:18 10° N 18:30:11 46° N 18:30:11 46° N
Cosmos 372 Rocket 4.5 18:30:22 10° SW 18:35:30 60° WNW 18:39:58 14° NNE
CZ-4B R/B 4.4 18:35:00 10° NNW 18:36:58 15° WNW 18:38:55 10° WSW
Cosmos 468 4.4 18:33:20 10° NNW 18:38:38 84° ENE 18:41:13 31° SSE
CZ-2C R/B 2.6 18:33:45 13° NNE 18:38:46 68° E 18:44:22 10° S
Cosmos 494 Rocket 3.9 18:37:28 10° NNW 18:42:29 63° ENE 18:42:29 63° ENE
Cosmos 2150 Rocket 3.8 18:39:29 10° SSW 18:44:39 85° ESE 18:45:58 52° NNE
Cosmos 1048 Rocket 3.9 18:42:26 10° NNW 18:47:36 83° WSW 18:49:36 38° SSE
Cosmos 2297 4.0 18:46:54 10° S 18:51:23 49° SSE 18:51:23 49° SSE
SL-08 RB Rocket 4.0 18:59:18 51° SSW 19:00:10 63° W 19:04:37 10° NNW
H-2A R/B 3.8 19:02:40 10° SSW 19:07:06 30° W 19:11:41 10° NNW
Cosmos 1125 Rocket 3.7 19:04:07 10° SSW 19:08:41 67° SW 19:08:41 67° SW
Cosmos 2266 Rocket 4.1 19:07:32 10° SSW 19:13:45 71° W 19:19:54 10° N
NOSS 2-2 (C) 4.4 19:15:03 10° NW 19:20:07 78° NNW 19:20:07 78° NNW
Cosmos 1943 Rocket 4.2 19:22:20 10° SSW 19:23:18 15° SSW 19:23:18 15° SSW
Cosmos 2082 Rocket 3.8 19:24:35 10° NW 19:29:36 33° WSW 19:33:42 14° SSW
ATLAS 2AS CENTAUR R/B 4.3 19:43:43 10° NNW 19:48:21 25° N 19:48:21 25° N
USA 234 4.2 19:53:13 39° NNW 19:53:13 39° NNW 19:57:43 10° NW
CZ-4C R/B 4.3 19:53:46 10° NNW 19:56:58 24° N 19:56:58 24° N
